Baker, OR

8:37 AM PDT on May 22, 2017 (GMT -0700)
Baker City Municipal

Weather History for KBKE - April, 2014

Change the Weather History Date:

Sunday, April 6, 2014

  Actual Average Record
Temperature  
Mean Temperature 49 °F 42 °F  
Max Temperature 61 °F 56 °F 77 °F (1977)
Min Temperature 36 °F 28 °F 16 °F (1997)
Degree Days  
Heating Degree Days 16 23  
Month to date heating degree days 133 142  
Since 1 July heating degree days 6414 6510  
Cooling Degree Days 0 0  
Month to date cooling degree days 0 0  
Year to date cooling degree days 0 0  
Moisture  
Dew Point 37 °F    
Average Humidity 68    
Maximum Humidity 92    
Minimum Humidity 43    
Precipitation  
Precipitation 0.01 in 0.03 in 0.62 in (1969)
Month to date precipitation 0.05 0.15  
Year to date precipitation 2.78 2.35  
Sea Level Pressure  
Sea Level Pressure 30.17 in    
Wind  
Wind Speed 8 mph (North)    
Max Wind Speed 23 mph    
Max Gust Speed 28 mph    
Visibility 10 miles    
Events Rain    
T = Trace of Precipitation, MM = Missing Value Source: NWS Daily Summary

Daily Weather History Graph

Daily Weather History Graph

Search for Another Location

Airport or City:

Trip Planner

Search our weather history database for the weather conditions in past years. The results will help you decide how hot, cold, wet, or windy it might be!

Date:

Astronomy

Apr. 06, 2014 Rise Set
Actual Time 6:22 AM PDT 7:25 PM PDT
Civil Twilight 5:52 AM PDT 7:55 PM PDT
Nautical Twilight 5:17 AM PDT 8:31 PM PDT
Astronomical Twilight 4:39 AM PDT 9:08 PM PDT
Moon 11:19 AM PDT (4/6) 1:32 AM PDT (4/6)
Length of Visible Light 14h 02m
Length of Day
13h 02m
Waxing Crescent, 45% of the Moon is Illuminated
Apr 6
Waxing Crescent
Apr 7
First Quarter
Apr 15
Full
Apr 22
Last Quarter
Apr 28
New

Hourly Weather History & Observations

Time (PDT) Temp. Windchill Dew Point Humidity Pressure Visibility Wind Dir Wind Speed Gust Speed Precip Events Conditions
12:53 AM 39.9 °F 37.8 °F 37.0 °F 89% 30.09 in 10.0 mi NE 3.5 mph - 0.00 in Rain Light Rain
1:53 AM 39.0 °F 35.7 °F 37.0 °F 93% 30.09 in 10.0 mi East 4.6 mph - 0.00 in Rain Light Rain
2:53 AM 37.9 °F 34.4 °F 36.0 °F 93% 30.10 in 10.0 mi NNE 4.6 mph - 0.01 in Rain Light Rain
3:37 AM 37.9 °F 35.5 °F 37.0 °F 97% 30.09 in 10.0 mi North 3.5 mph - 0.00 in Rain Light Rain
4:33 AM 39.0 °F - 37.9 °F 96% 30.10 in 10.0 mi Calm Calm - 0.00 in   Overcast
4:53 AM 39.0 °F 36.8 °F 37.9 °F 96% 30.11 in 10.0 mi South 3.5 mph - 0.00 in Rain Light Rain
5:32 AM 37.9 °F - 37.0 °F 97% 30.11 in 10.0 mi Calm Calm - 0.00 in   Overcast
5:53 AM 37.0 °F 34.5 °F 36.0 °F 96% 30.14 in 10.0 mi SE 3.5 mph - 0.00 in   Overcast
6:53 AM 39.0 °F 36.8 °F 37.0 °F 93% 30.16 in 10.0 mi SSW 3.5 mph - N/A   Overcast
7:03 AM 39.0 °F - 37.9 °F 96% 30.13 in 10.0 mi Calm Calm - N/A   Overcast
7:53 AM 39.9 °F 37.8 °F 37.9 °F 93% 30.18 in 10.0 mi SSE 3.5 mph - N/A   Overcast
8:53 AM 44.1 °F - 37.9 °F 79% 30.19 in 10.0 mi Calm Calm - N/A   Mostly Cloudy
9:18 AM 46.0 °F - 39.9 °F 79% 30.16 in 10.0 mi Calm Calm - N/A   Overcast
9:53 AM 48.0 °F - 39.9 °F 74% 30.19 in 10.0 mi North 3.5 mph - N/A   Mostly Cloudy
10:53 AM 51.1 °F - 39.9 °F 66% 30.20 in 10.0 mi NE 3.5 mph - N/A   Mostly Cloudy
11:53 AM 53.1 °F - 39.0 °F 59% 30.19 in 10.0 mi Variable 3.5 mph - N/A   Overcast
12:53 PM 57.0 °F - 35.1 °F 44% 30.18 in 10.0 mi WNW 18.4 mph 21.9 mph N/A   Mostly Cloudy
1:53 PM 55.9 °F - 35.1 °F 45% 30.19 in 10.0 mi NNW 16.1 mph 23.0 mph N/A   Mostly Cloudy
2:53 PM 57.0 °F - 35.1 °F 44% 30.19 in 10.0 mi North 10.4 mph 25.3 mph N/A   Mostly Cloudy
3:53 PM 59.0 °F - 37.0 °F 44% 30.19 in 10.0 mi North 9.2 mph 21.9 mph N/A   Mostly Cloudy
4:53 PM 57.9 °F - 36.0 °F 44% 30.19 in 10.0 mi NNW 15.0 mph - N/A   Clear
5:53 PM 55.9 °F - 37.0 °F 49% 30.21 in 10.0 mi North 15.0 mph - N/A   Clear
6:53 PM 53.1 °F - 37.0 °F 55% 30.22 in 10.0 mi North 12.7 mph - N/A   Clear
7:53 PM 48.9 °F - 37.9 °F 66% 30.24 in 10.0 mi North 13.8 mph - N/A   Clear
8:53 PM 48.9 °F - 37.9 °F 66% 30.26 in 10.0 mi NNW 13.8 mph - N/A   Partly Cloudy
9:53 PM 48.0 °F - 37.0 °F 66% 30.28 in 10.0 mi NW 12.7 mph - N/A   Clear